Temp
51 46 42 47 48 49 47 43 43 48 56 50 49 49 54 57 56 56 58 58 59 60 63 64 64 64 62 62 63 65 65 67 68 67 67 67 68 68 68 70 71 72 72 73
47 42 51 53 52 49 47 43 42 48 53 49 48 48 53 54 55 57 58 59 60 59 61 63 63 64 62 61 61 62 64 65 68 70 65 67 65 66 67 68 69 70 71 72
44 50 56 53 50 47 45 42 43 45 50 49 46 43 48 55 54 58 58 58 59 59 60 61 62 62 62 60 60 61 64 65 66 66 62 61 61 63 65 67 67 69 71 71
47 54 53 49 48 49 42 50 52 49 42 37 47 37 45 49 52 54 57 56 57 59 59 58 60 59 61 63 60 60 60 64 67 64 65 63 64 62 63 64 64 67 70 69
49 49 47 47 51 52 47 52 50 48 41 35 40 34 39 45 47 52 55 57 58 59 58 59 60 60 61 62 61 61 60 60 62 64 67 63 60 61 60 61 63 63 65 68
52 55 54 53 57 56 56 49 43 38 36 29 39 37 38 43 49 52 56 57 58 59 59 59 60 59 60 61 61 59 59 60 60 61 61 62 61 60 59 58 60 61 62 63
50 52 55 57 50 56 49 39 29 28 29 33 42 36 40 48 54 53 53 54 55 57 56 57 57 58 56 55 55 56 58 58 58 60 60 60 60 59 59 59 59 58 58 59
38 40 53 59 53 47 45 42 31 25 24 33 40 32 40 50 52 52 53 52 54 53 55 54 56 56 56 55 55 56 56 56 56 58 58 59 59 60 58 58 58 58 58 60
37 40 54 57 59 56 49 43 49 38 32 27 34 38 46 49 49 51 51 52 51 52 52 53 55 55 55 55 54 56 57 58 60 61 59 58 57 57 58 58 58 59 59 61
45 35 48 54 55 56 52 54 39 37 26 23 29 31 35 43 45 47 48 49 50 51 53 54 54 55 56 56 56 56 58 56 58 58 59 60 59 58 58 57 58 58 59 60
48 40 40 50 45 45 46 40 41 39 36 27 29 30 41 42 43 45 47 50 48 49 51 53 55 56 56 57 58 58 59 59 59 59 59 57 58 58 58 58 59 59 59 59
47 41 33 38 51 55 50 44 44 32 30 34 32 30 45 44 47 46 47 51 52 51 52 54 55 55 56 57 58 57 60 60 64 61 60 59 59 59 57 59 59 59 59 59
44 36 28 33 40 47 41 43 41 38 34 29 26 30 47 48 47 49 45 48 49 51 53 54 56 56 55 56 57 60 58 59 61 61 61 59 58 58 57 59 59 59 60 60
45 36 33 30 35 39 35 39 40 36 30 31 32 36 42 42 41 42 44 46 48 50 52 53 52 54 54 55 56 56 56 58 59 59 59 59 58 59 60 60 61 60 61 61
40 33 35 37 40 42 41 40 42 38 38 29 36 36 42 40 40 42 45 46 48 50 51 51 50 52 53 54 55 55 57 58 58 57 56 55 56 58 59 60 60 61 61 61
39 31 37 34 41 40 36 40 41 40 40 39 38 37 40 42 43 43 44 46 47 48 50 50 51 52 51 52 53 53 53 55 56 55 56 57 56 56 57 57 58 58 59 60
35 34 32 29 38 35 30 37 39 39 39 37 31 36 39 38 41 41 42 44 45 46 46 47 47 49 50 49 50 50 51 53 54 54 56 57 57 57 56 57 58 58 57 58
33 32 31 28 31 22 36 43 42 39 41 42 40 39 41 41 42 42 44 44 43 43 45 46 47 48 48 49 50 50 50 50 51 53 55 57 58 58 58 56 56 55 57 56
41 33 25 25 24 32 36 40 38 36 36 40 40 41 43 43 39 42 47 46 44 46 47 48 50 50 47 49 50 49 48 48 49 50 52 55 57 57 58 56 55 55 55 56
38 36 30 26 20 21 33 41 45 42 31 41 41 37 36 36 29 37 45 46 47 49 49 47 49 52 50 49 48 47 46 46 46 49 51 54 56 56 56 56 55 55 56 57
32 30 27 26 23 31 40 43 46 30 29 38 38 36 36 34 36 42 45 46 48 47 46 49 50 48 49 49 49 47 46 45 48 50 51 52 53 53 54 54 54 55 55 57
31 31 28 31 25 22 43 42 34 35 36 38 41 41 40 41 41 43 45 45 46 44 46 46 46 45 47 49 49 46 44 47 48 48 48 48 50 52 54 52 54 55 55 54
29 34 29 30 28 37 39 39 41 38 38 42 42 41 40 40 41 42 42 43 43 44 43 44 44 45 46 47 47 45 46 48 48 48 48 49 50 51 51 50 51 53 54 54
36 38 32 33 36 37 38 40 41 41 41 43 43 42 42 40 41 41 41 41 42 41 41 43 43 42 42 45 46 46 47 48 47 45 46 47 47 48 49 50 51 51 51 52
34 36 32 33 35 38 38 40 41 43 44 44 45 44 43 42 41 41 38 40 40 40 41 41 40 40 41 44 44 46 47 46 44 45 45 45 45 45 45 46 47 48 51 53
36 37 30 27 38 38 35 38 42 40 42 43 41 42 43 42 40 40 39 38 39 37 38 38 39 40 41 43 44 45 47 46 45 44 44 45 45 46 46 46 46 45 46 46
MSLP
1010.70 1011.45 1011.98 1012.20 1012.42 1012.43 1012.66 1012.73 1012.46 1011.52 1010.38 1010.82 1010.30 1010.16 1009.62 1008.92 1008.68 1008.43 1008.30 1008.03 1007.59 1007.25 1006.16 1005.84 1005.81 1005.64 1005.71 1005.79 1005.97 1005.80 1005.97 1005.75 1006.21 1006.82 1007.62 1008.18 1008.41 1008.49 1008.85 1008.72 1008.77 1009.28 1008.82 1008.77
1011.38 1011.44 1011.28 1011.58 1011.94 1012.25 1012.47 1012.53 1012.10 1011.22 1010.22 1010.74 1010.04 1009.95 1009.25 1009.16 1008.46 1008.02 1007.91 1007.83 1007.28 1006.90 1006.39 1005.98 1005.61 1005.41 1005.26 1005.40 1005.61 1005.71 1005.59 1005.84 1005.56 1005.83 1006.59 1007.02 1007.58 1008.15 1008.41 1008.70 1008.67 1008.57 1008.73 1009.05
1011.16 1010.42 1010.38 1011.11 1011.34 1011.81 1011.82 1012.02 1011.73 1011.46 1010.36 1010.18 1010.07 1009.74 1009.12 1008.38 1007.99 1007.63 1007.37 1007.08 1006.94 1006.80 1006.48 1005.90 1005.65 1005.38 1005.10 1005.09 1004.88 1004.89 1004.92 1005.08 1005.50 1005.72 1006.38 1007.27 1007.65 1008.12 1008.34 1008.57 1008.44 1008.43 1008.61 1008.77
1010.72 1009.63 1010.08 1010.56 1010.73 1011.02 1011.14 1010.60 1010.80 1011.04 1011.32 1011.16 1010.41 1009.41 1009.10 1008.38 1007.97 1007.44 1006.95 1006.98 1006.62 1006.22 1005.73 1005.72 1005.58 1005.10 1004.82 1004.36 1004.30 1004.64 1004.79 1005.04 1004.82 1005.18 1005.71 1006.23 1006.58 1007.24 1007.26 1007.65 1007.98 1008.14 1008.55 1009.10
1009.62 1009.38 1009.60 1009.81 1009.25 1009.92 1010.07 1010.01 1010.68 1011.02 1011.38 1011.34 1011.00 1010.57 1008.85 1008.60 1008.03 1007.34 1006.74 1006.28 1005.94 1005.70 1005.43 1005.26 1004.85 1004.52 1004.22 1004.14 1003.96 1003.80 1004.08 1004.50 1004.95 1004.69 1004.72 1005.32 1006.15 1006.55 1007.09 1007.54 1008.06 1008.30 1008.44 1008.57
1009.18 1008.94 1008.98 1008.62 1008.58 1009.10 1009.34 1009.93 1010.66 1011.30 1011.88 1011.64 1010.87 1010.38 1008.90 1008.38 1007.46 1006.80 1006.28 1006.02 1005.89 1005.76 1005.30 1004.85 1004.25 1004.14 1003.77 1003.34 1003.39 1003.39 1003.44 1003.66 1004.08 1004.53 1004.70 1004.96 1005.44 1006.28 1007.10 1007.65 1008.12 1008.52 1008.76 1008.64
1008.90 1008.69 1008.40 1008.36 1008.58 1008.52 1009.37 1010.44 1011.58 1011.84 1012.14 1010.76 1010.11 1009.80 1008.40 1007.48 1006.82 1006.70 1006.83 1006.63 1006.32 1005.98 1005.52 1004.78 1004.38 1004.09 1003.60 1003.19 1003.13 1003.21 1003.23 1003.13 1003.59 1004.10 1004.54 1004.78 1005.20 1005.80 1006.44 1006.89 1007.44 1008.26 1008.66 1008.71
1009.40 1008.77 1008.02 1007.66 1007.94 1008.28 1008.89 1009.89 1011.24 1011.06 1011.67 1011.10 1010.54 1009.30 1007.72 1006.82 1006.74 1006.74 1007.09 1006.96 1006.56 1006.06 1005.48 1004.93 1004.66 1004.33 1003.21 1003.01 1003.00 1002.97 1003.02 1003.14 1003.63 1003.90 1004.03 1004.49 1004.76 1005.26 1006.10 1006.43 1006.83 1007.16 1007.63 1007.96
1009.48 1009.11 1008.18 1007.82 1007.66 1007.82 1008.20 1009.07 1009.40 1010.61 1011.24 1011.21 1010.30 1008.98 1007.83 1007.09 1006.87 1007.05 1007.40 1007.06 1006.80 1006.34 1005.72 1005.20 1004.63 1004.38 1004.20 1003.03 1002.78 1002.75 1002.88 1002.80 1003.29 1003.80 1004.03 1004.50 1004.52 1004.83 1005.22 1005.59 1006.05 1006.58 1006.92 1007.27
1009.55 1009.76 1009.14 1008.50 1008.12 1007.83 1007.89 1008.51 1009.71 1011.10 1012.06 1011.21 1009.91 1009.36 1008.32 1007.64 1007.51 1007.36 1007.12 1007.01 1006.86 1006.40 1005.88 1005.12 1004.82 1004.45 1004.13 1003.53 1002.95 1002.66 1002.89 1002.92 1003.41 1003.74 1003.43 1003.80 1003.61 1004.19 1004.39 1005.30 1005.70 1006.36 1006.59 1006.84
1009.94 1010.48 1010.26 1009.74 1009.04 1008.39 1008.59 1009.28 1010.28 1011.38 1011.94 1011.52 1010.14 1008.89 1007.88 1007.80 1008.04 1008.04 1007.76 1007.33 1007.03 1006.44 1006.00 1005.08 1004.39 1004.15 1003.85 1003.76 1003.50 1002.60 1002.82 1003.20 1003.56 1003.73 1003.79 1003.92 1003.89 1003.61 1004.22 1004.62 1004.95 1005.56 1006.10 1006.47
1010.97 1011.01 1011.28 1010.40 1009.15 1008.88 1009.56 1009.92 1010.86 1011.76 1012.08 1011.61 1010.99 1008.86 1008.02 1008.11 1008.08 1008.10 1007.86 1007.50 1006.82 1006.42 1005.80 1005.06 1004.04 1004.01 1004.06 1003.61 1003.54 1003.86 1002.34 1002.54 1002.45 1002.53 1003.66 1004.12 1003.90 1004.29 1004.92 1004.26 1004.40 1005.00 1005.40 1005.88
1012.31 1012.40 1012.22 1010.98 1010.26 1009.88 1010.32 1010.87 1011.37 1011.82 1012.16 1011.62 1011.31 1009.18 1008.28 1008.06 1008.40 1008.40 1008.24 1007.70 1007.12 1006.45 1005.53 1005.04 1004.29 1004.08 1003.89 1004.10 1004.14 1003.76 1003.37 1002.79 1002.20 1002.42 1002.60 1002.78 1003.04 1003.70 1004.07 1004.48 1004.43 1004.83 1004.87 1005.22
1013.45 1013.20 1012.70 1011.96 1011.38 1011.25 1011.16 1011.14 1011.53 1011.90 1011.70 1011.08 1010.51 1008.96 1009.10 1009.28 1009.38 1009.06 1008.70 1008.28 1007.59 1006.78 1006.27 1005.70 1005.17 1004.97 1004.95 1004.58 1004.55 1004.43 1003.72 1003.08 1002.52 1002.42 1002.15 1002.12 1002.46 1002.69 1002.98 1003.01 1003.15 1003.50 1004.28 1004.62
1013.80 1013.48 1013.11 1012.57 1012.02 1011.40 1011.06 1010.61 1010.56 1010.72 1010.63 1010.92 1009.77 1009.61 1009.27 1009.63 1009.56 1009.28 1008.91 1008.44 1007.78 1007.15 1006.60 1006.13 1005.91 1005.24 1005.09 1005.24 1004.96 1004.64 1004.14 1003.50 1003.22 1002.90 1002.86 1002.84 1002.41 1002.03 1002.20 1002.28 1002.52 1002.52 1002.64 1003.18
1013.84 1013.86 1013.25 1012.58 1011.64 1010.85 1010.48 1009.96 1009.96 1010.02 1009.99 1010.01 1009.89 1009.42 1009.72 1009.75 1009.60 1009.38 1008.95 1008.62 1007.93 1007.24 1006.80 1006.50 1006.18 1005.79 1005.42 1005.13 1004.98 1004.72 1004.35 1003.73 1003.28 1002.86 1002.60 1002.06 1002.18 1001.69 1001.53 1001.54 1001.68 1002.04 1002.02 1002.38
1013.58 1013.76 1013.53 1012.51 1011.60 1011.00 1010.26 1009.18 1009.20 1009.54 1009.57 1009.79 1009.98 1009.93 1010.03 1009.91 1009.69 1009.43 1009.01 1008.42 1007.66 1007.20 1006.84 1006.61 1006.45 1006.10 1005.79 1005.61 1005.24 1004.63 1004.28 1003.90 1003.16 1002.49 1001.92 1001.60 1001.49 1001.28 1001.04 1001.00 1001.20 1001.22 1001.33 1001.28
1013.00 1013.48 1013.84 1013.07 1012.31 1011.28 1009.76 1009.31 1009.41 1009.63 1009.56 1009.69 1009.86 1009.98 1010.10 1010.13 1009.85 1009.42 1008.93 1008.17 1007.58 1007.29 1006.73 1006.15 1005.69 1005.20 1004.76 1004.29 1003.92 1003.76 1003.45 1002.93 1002.56 1002.10 1001.70 1001.34 1000.98 1000.78 1000.58 1000.48 1000.58 1000.50 1000.68 1000.66
1011.98 1013.14 1013.69 1013.47 1012.65 1010.92 1009.89 1009.78 1009.92 1010.11 1009.78 1009.72 1010.15 1010.36 1010.19 1010.11 1009.76 1008.21 1007.83 1007.64 1007.34 1006.74 1006.15 1005.55 1004.98 1004.27 1003.80 1003.41 1003.14 1002.86 1002.43 1002.40 1001.91 1001.04 1000.55 1000.30 1000.18 999.87 999.66 999.50 999.48 999.56 999.88 999.90
1012.01 1012.78 1013.50 1013.70 1012.82 1011.34 1010.11 1010.02 1010.10 1010.34 1010.04 1010.07 1010.64 1010.72 1010.54 1010.27 1009.51 1008.00 1007.60 1007.28 1006.42 1005.67 1005.17 1004.80 1004.18 1003.46 1002.79 1002.36 1002.46 1002.16 1001.50 1001.16 1000.63 1000.30 999.86 999.51 999.20 998.89 998.55 998.38 998.34 998.44 998.57 998.70
1012.53 1013.22 1013.37 1013.21 1012.60 1011.19 1010.29 1010.22 1010.29 1010.89 1011.15 1010.67 1010.90 1010.73 1010.50 1010.14 1009.28 1007.62 1007.22 1006.19 1005.50 1004.98 1004.59 1003.90 1003.22 1002.56 1001.99 1001.57 1001.31 1000.78 1000.46 999.95 999.64 999.34 998.98 998.77 998.60 998.31 998.06 997.88 997.84 997.76 997.74 997.77
1012.01 1012.39 1012.69 1012.49 1012.23 1011.54 1010.54 1010.54 1011.12 1011.02 1010.73 1010.75 1010.30 1010.09 1009.51 1008.96 1008.05 1007.20 1006.21 1005.39 1004.65 1004.03 1003.40 1003.15 1002.37 1001.47 1001.01 1000.48 1000.19 999.77 999.46 999.02 998.63 998.34 998.02 997.68 997.46 997.26 996.95 996.82 996.76 996.81 996.90 997.01
1011.98 1012.12 1012.49 1012.36 1011.65 1011.11 1010.97 1011.05 1010.82 1010.92 1010.84 1010.19 1009.88 1009.52 1008.97 1008.02 1007.14 1006.37 1005.38 1004.52 1003.93 1003.05 1002.76 1002.24 1001.52 1000.58 1000.13 999.66 999.34 998.73 997.86 997.78 997.40 997.02 996.55 996.20 995.91 995.66 995.55 995.47 995.26 995.24 995.34 995.39
1012.13 1011.94 1012.24 1012.10 1011.60 1011.43 1011.04 1010.88 1010.86 1010.83 1010.43 1009.84 1009.38 1008.84 1008.21 1007.30 1006.43 1005.54 1004.63 1003.88 1002.87 1002.48 1001.94 1001.40 1000.67 1000.01 999.10 998.51 998.22 997.58 996.97 996.53 996.18 995.70 995.22 994.75 994.45 994.08 993.94 993.89 993.80 993.74 993.74 993.86
1012.56 1012.21 1012.29 1012.03 1011.66 1011.25 1011.05 1010.97 1010.75 1010.24 1009.82 1009.20 1008.75 1008.20 1007.32 1006.48 1005.53 1004.65 1004.00 1003.21 1002.38 1001.91 1001.18 1000.82 1000.06 999.24 998.30 997.71 996.94 996.28 995.67 995.41 994.86 994.19 993.59 993.20 992.81 992.31 991.97 991.73 991.77 991.79 991.64 991.74
1012.10 1011.93 1012.32 1012.22 1011.74 1011.91 1011.51 1011.08 1010.66 1010.09 1009.29 1008.71 1008.16 1007.16 1006.54 1005.95 1004.76 1004.14 1003.23 1002.74 1001.89 1001.21 1000.48 999.76 999.01 998.23 997.30 996.64 995.69 994.80 994.41 993.99 993.32 992.31 991.42 991.04 990.63 990.00 989.79 989.68 989.63 989.67 989.90 990.22
Wind_Speed
2 4 6 9 7 5 2 3 7 8 13 3 8 8 12 10 6 9 8 7 8 8 8 8 8 6 7 8 8 11 9 9 9 5 5 4 7 3 3 6 6 7 6 12
5 6 10 5 4 5 4 6 8 9 11 6 10 10 10 7 7 8 7 9 9 7 8 10 10 9 6 5 9 6 7 6 9 8 3 3 4 3 2 3 4 5 5 7
8 9 5 6 5 4 5 5 6 9 5 3 4 5 6 6 4 6 9 9 7 10 11 11 9 9 9 8 9 10 12 12 8 7 5 4 4 3 3 3 4 4 4 3
6 7 7 5 6 9 7 10 11 6 1 7 4 12 8 6 10 7 10 9 10 11 10 8 10 10 10 12 7 8 7 9 11 11 9 8 6 6 4 4 3 4 6 6
10 3 3 6 14 6 10 2 8 7 6 0 4 7 7 1 7 11 10 11 11 11 9 11 10 10 9 10 9 11 10 9 7 12 14 8 5 4 3 3 6 4 4 6
8 0 6 8 5 8 5 3 2 4 3 5 9 8 4 6 9 6 7 7 9 10 10 10 10 8 11 9 9 9 13 13 11 11 8 10 10 7 5 5 4 3 2 3
7 13 7 4 7 11 4 4 5 5 3 12 6 4 8 7 9 7 8 10 11 11 10 11 10 9 8 8 7 7 11 13 11 11 9 9 9 8 8 6 6 7 4 3
3 10 6 4 8 10 7 9 7 7 4 8 3 7 7 7 3 2 0 3 7 10 12 10 9 10 7 7 7 8 8 5 5 7 9 7 8 7 6 7 5 4 5 6
2 5 5 4 2 6 3 5 3 2 2 4 6 6 6 1 1 6 8 7 8 9 8 10 10 8 11 6 8 7 7 7 12 12 7 7 6 8 7 8 5 4 4 4
3 4 3 8 2 6 7 2 1 2 5 8 4 5 7 6 4 6 9 9 9 8 10 7 7 8 8 7 4 3 3 5 2 8 9 10 10 9 7 6 7 6 5 5
2 3 3 3 6 8 2 2 2 1 3 7 12 5 6 4 2 6 9 9 9 9 9 8 7 6 7 7 8 5 5 5 7 6 3 5 5 7 6 7 7 7 5 6
3 2 4 10 12 11 12 17 12 7 5 5 3 7 1 2 2 5 10 13 11 8 9 10 6 7 8 8 6 11 8 11 12 7 5 6 3 2 5 7 9 7 9 6
5 2 4 6 1 4 2 3 2 0 1 5 4 5 2 8 14 12 10 12 11 11 12 10 11 7 9 7 7 8 7 7 5 5 8 6 6 7 8 9 7 7 10 10
6 4 6 10 3 6 7 9 10 6 4 4 9 19 15 6 7 8 8 10 11 10 9 10 8 9 8 9 10 8 7 5 6 6 5 8 9 10 13 14 13 12 11 11
5 5 6 6 14 15 17 20 16 15 14 8 16 17 14 4 5 6 6 7 10 10 7 7 9 9 10 10 10 10 10 9 6 5 5 7 8 7 8 9 10 12 13 13
8 4 5 11 16 17 15 17 15 14 15 15 16 19 2 5 5 6 6 12 15 12 9 8 11 12 13 13 10 10 12 12 9 7 8 5 6 6 7 8 9 10 12 12
6 5 1 7 4 4 7 7 9 3 3 3 4 1 5 8 11 12 12 17 16 13 7 10 12 13 10 9 10 13 11 10 11 10 10 9 8 7 7 8 9 12 12 11
6 6 4 5 4 4 1 2 5 2 6 5 7 3 7 8 10 12 14 16 12 8 11 15 15 15 13 13 16 15 13 13 14 14 13 11 11 11 10 9 10 10 8 11
13 6 3 3 3 6 2 0 2 3 6 3 3 7 11 12 10 16 6 3 9 16 17 16 17 17 12 16 19 15 15 15 16 17 16 15 14 15 14 13 11 10 8 9
7 5 3 1 3 4 3 3 3 2 10 8 5 8 10 8 11 13 14 18 20 19 15 18 21 22 15 18 16 17 19 18 17 16 16 16 15 16 15 14 12 9 9 11
4 3 7 5 3 6 2 2 3 1 4 5 3 9 11 11 12 18 21 23 20 17 21 23 19 16 19 19 19 20 19 19 18 16 14 14 14 14 13 11 8 9 10 11
1 1 2 2 2 6 1 3 1 3 3 6 11 15 18 19 20 21 24 23 23 22 20 18 20 20 19 16 17 18 19 19 19 18 19 18 17 15 15 18 15 15 13 13
1 3 3 7 6 2 0 5 7 2 6 12 15 15 17 21 22 21 22 22 22 21 16 18 19 18 17 18 15 19 21 18 18 17 18 18 18 17 16 16 16 14 15 14
3 2 2 4 2 2 6 2 2 6 10 14 15 17 19 21 20 23 18 21 19 15 19 17 16 18 20 17 18 19 19 19 18 19 19 18 18 18 17 14 14 14 15 15
5 2 1 5 3 7 1 5 10 15 15 16 18 18 19 21 21 19 20 21 15 17 16 15 16 17 19 18 19 19 19 18 18 18 18 18 16 17 16 17 15 15 17 16
4 3 3 5 4 4 8 6 13 15 16 17 18 18 19 19 20 18 21 19 17 17 17 16 18 18 19 18 19 20 18 18 18 18 15 14 15 16 15 15 15 27 29 28
Wind_Direction
28 96 216 222 200 192 220 232 252 262 271 188 242 247 260 266 286 278 274 292 303 283 277 285 285 280 215 239 220 209 204 192 164 156 158 157 201 214 246 224 199 206 190 171
26 242 226 210 197 219 236 264 274 278 264 153 265 252 252 248 236 223 241 278 273 283 290 289 295 298 259 232 229 222 210 205 194 185 151 146 147 180 179 169 210 201 192 179
180 232 133 176 216 202 232 193 250 229 309 274 292 280 257 256 242 264 254 243 270 253 269 279 277 260 275 247 226 212 205 196 198 165 122 99 96 68 112 195 225 231 218 196
228 254 210 192 242 167 256 196 231 255 306 268 131 283 283 242 249 256 266 262 253 267 270 254 267 270 248 247 218 212 209 216 193 169 170 166 176 158 192 171 162 187 203 208
240 196 157 205 234 129 235 196 224 245 245 209 259 272 251 331 280 269 256 254 257 258 255 269 261 246 250 251 231 217 207 192 207 197 186 168 155 136 137 126 158 184 197 199
244 284 177 219 253 176 233 279 44 49 112 234 219 213 187 204 228 257 279 270 274 296 292 263 263 275 271 262 235 215 198 199 183 186 180 176 165 157 152 150 159 195 249 267
274 252 255 201 283 283 152 66 313 306 259 265 229 242 239 231 247 241 292 322 322 318 290 274 270 270 265 260 232 218 202 193 182 181 177 177 176 173 181 173 171 165 188 220
207 283 184 184 194 210 210 166 179 244 230 282 245 242 240 220 312 333 92 277 320 336 338 297 296 284 256 239 215 203 187 172 175 180 179 179 170 169 187 187 180 189 187 184
230 268 326 349 311 154 204 200 204 281 331 275 225 293 300 269 310 8 316 336 326 315 334 333 320 301 296 229 196 185 180 176 187 195 183 196 189 174 185 198 176 191 197 203
227 274 285 302 310 244 206 179 253 57 283 259 236 233 234 238 303 322 342 332 317 311 320 333 326 322 291 280 267 159 166 196 240 246 199 204 196 194 181 157 184 201 215 204
154 116 273 322 229 241 297 96 80 356 185 259 291 250 217 204 296 286 307 310 288 295 294 293 301 303 306 309 276 219 218 229 232 230 251 296 235 197 175 184 192 205 192 209
12 198 237 236 259 288 268 270 262 226 208 227 259 258 289 223 274 260 293 307 297 300 300 283 277 286 282 301 305 298 225 209 218 180 189 236 227 262 272 208 199 190 212 198
356 205 297 297 78 50 90 227 142 104 185 196 239 265 287 348 343 323 324 326 328 319 321 313 352 8 354 325 319 311 291 274 294 201 189 211 203 194 214 231 220 211 208 213
101 243 218 252 272 313 269 231 236 225 237 254 241 279 290 319 320 323 333 329 329 319 328 351 7 12 358 358 356 337 321 322 327 314 277 238 227 214 215 216 214 196 210 218
143 250 231 267 260 262 267 265 259 249 245 229 279 274 294 296 296 284 290 304 326 327 329 334 331 346 355 348 343 340 338 340 323 308 286 266 263 231 226 227 226 219 205 206
155 254 239 264 274 258 258 257 255 253 262 264 263 273 176 285 293 294 324 328 311 307 310 335 337 335 325 324 328 327 319 314 312 298 287 288 278 269 241 225 210 212 214 217
192 200 22 275 314 324 272 259 220 235 231 234 258 281 354 324 327 323 320 304 298 305 314 318 312 302 286 283 296 297 294 299 294 286 287 281 264 249 244 239 229 224 218 203
208 165 168 270 3 251 254 68 106 244 243 220 270 283 308 296 295 287 278 279 290 300 306 310 306 299 287 300 303 292 283 291 286 273 267 265 265 260 247 226 223 223 215 218
199 156 218 190 208 293 179 98 29 26 278 198 278 303 310 309 299 294 261 263 285 294 293 289 292 282 279 296 301 289 286 285 281 278 277 272 263 257 248 239 223 216 214 215
76 95 130 192 188 247 231 171 4 202 279 99 329 296 297 322 296 290 313 301 288 281 284 291 292 284 280 288 281 279 288 285 278 278 278 277 270 261 251 244 231 212 215 220
134 149 202 217 254 286 169 332 317 307 273 319 275 287 300 288 269 289 291 289 287 293 293 287 284 285 282 287 280 277 277 270 270 267 269 273 270 263 259 257 241 229 220 227
198 185 212 172 220 287 72 357 105 257 299 285 312 297 298 292 289 292 302 296 295 291 291 290 287 282 281 276 281 276 274 272 270 270 271 268 263 258 257 251 251 244 240 238
315 168 214 179 223 241 23 227 282 233 275 304 311 306 296 296 298 295 299 297 300 290 290 293 284 281 284 277 273 276 270 272 271 269 267 262 259 256 252 250 246 241 235 231
322 54 223 5 17 341 285 278 223 293 297 304 298 294 293 290 291 293 300 305 296 297 290 291 288 283 281 279 276 269 272 271 268 266 263 260 257 256 251 246 240 236 232 232
221 356 291 273 304 316 58 294 323 310 301 299 304 296 295 297 294 299 309 303 291 298 290 290 285 282 280 283 280 277 274 273 269 264 260 259 255 248 245 237 232 231 229 222
196 168 159 243 242 235 278 281 298 297 300 308 306 305 305 300 300 311 305 306 298 299 297 290 286 282 281 280 277 275 274 270 266 264 260 255 253 246 237 238 237 227 228 223